User: anonymous   Login
Location: Kailua
(21.4020°N, 157.7390°W)
Time: 09:10:03
(UTC-10:00)
Language:

Cosmos 2221 Rocket - Orbit

View from above orbital plane
View from above orbital plane
View from above satellite
View from above satellite

Ground track
Ground track

The orbit data is extracted from the following two-line orbital elements,

1 22237U 92080B   15030.89019700  .00000383  00000-0  49738-4 0  5555
2 22237 082.5110 205.3131 0020663 161.1002 311.1688 14.78041054195162
Epoch (UTC): 30 January 2015 21:21:53
Eccentricity: 0.0020663
inclination: 82.5110°
perigee height: 621 km
apogee height: 650 km
right ascension of ascending node: 205.3131°
argument of perigee: 161.1002°
revolutions per day: 14.78041054
mean anomaly at epoch: 311.1688°
orbit number at epoch: 19516

The dashed part of the orbit path shows where the satellite is in the earth's shadow,  

DLR